カタログに戻る

EPIC ATHENA

運用中科学SSO
NORAD 64871·PAYLOAD·🇺🇸 United States

打ち上げ Jul 23, 2025 から Vandenberg Space Force Base

Loading…

次のパス (今後24時間)

TLE

最新Source: Space-Track

元期: Sep 14, 2026, 14:25 UTC

1 64871U 25154C   26257.60100059  .00001416  00000-0  13682-3 0  9991
2 64871  97.6583 319.2652 0005401 317.2392  42.8408 14.94364998 62361

AllMySatでEPIC ATHENAをリアルタイム追跡

Download on the App Store